When you browse on this site, cookies collect data to enhance your experience and personalize the content and advertising you see.
Visit our Privacy Policy to learn more. By continuing to use the site, you agree to this use of cookies and data.
  • In France
  • List of Countries
  • For 7 days
  • Water Temperature
  • Satellite Maps
  • Weather Map
  • Weather Widgets
  • user-avatar
    Login

    Hourly Weather Asadabad

    Today, 24 January, Thursday

    Time Temperature Precipitation Wind Pressure Humidity
    00:00 +2°C° 0 mm 2 mps 661 mmHg 61%
    01:00 +2°C° 0 mm 2 mps 661 mmHg 60%
    02:00 +2°C° 0 mm 2 mps 661 mmHg 59%
    03:00 +2°C° 0 mm 2 mps 661 mmHg 57%
    04:00 +1°C° 0 mm 2 mps 661 mmHg 56%
    05:00 +1°C° 0 mm 2 mps 661 mmHg 55%
    06:00 +1°C° 0 mm 2 mps 662 mmHg 53%
    07:00 +1°C° 0 mm 2 mps 662 mmHg 51%
    08:00 +1°C° 0 mm 2 mps 662 mmHg 49%
    09:00 +2°C° 0 mm 2 mps 662 mmHg 44%
    10:00 +5°C° 0 mm 1 mps 662 mmHg 39%
    11:00 +6°C° 0 mm 1 mps 662 mmHg 35%
    12:00 +6°C° 0 mm 1 mps 662 mmHg 35%
    13:00 +7°C° 0 mm 1 mps 661 mmHg 34%
    14:00 +7°C° 0 mm 1 mps 661 mmHg 34%
    15:00 +7°C° 0 mm 1 mps 661 mmHg 36%
    16:00 +7°C° 0 mm 1 mps 661 mmHg 38%
    17:00 +6°C° 0 mm 1 mps 661 mmHg 40%
    18:00 +5°C° 0 mm 1 mps 661 mmHg 41%
    19:00 +3°C° 0 mm 2 mps 662 mmHg 43%
    20:00 +1°C° 0 mm 3 mps 662 mmHg 44%
    21:00 +1°C° 0 mm 3 mps 662 mmHg 42%
    22:00 0°C° 0 mm 3 mps 662 mmHg 40%
    23:00 0°C° 0 mm 3 mps 662 mmHg 39%

    Tomorrow, 25 January, Friday

    Time Temperature Precipitation Wind Pressure Humidity
    00:00 0°C° 0 mm 3 mps 662 mmHg 37%
    01:00 -1°C° 0 mm 3 mps 662 mmHg 36%
    02:00 -1°C° 0 mm 3 mps 662 mmHg 34%
    03:00 -1°C° 0 mm 3 mps 661 mmHg 34%
    04:00 -1°C° 0 mm 3 mps 661 mmHg 33%
    05:00 -1°C° 0 mm 3 mps 661 mmHg 32%
    06:00 -1°C° 0 mm 3 mps 661 mmHg 31%
    07:00 -1°C° 0 mm 3 mps 661 mmHg 30%
    08:00 -1°C° 0 mm 3 mps 661 mmHg 29%
    09:00 +1°C° 0 mm 3 mps 661 mmHg 26%
    10:00 +4°C° 0 mm 2 mps 661 mmHg 23%
    11:00 +7°C° 0 mm 1 mps 661 mmHg 19%
    12:00 +8°C° 0 mm 1 mps 661 mmHg 20%
    13:00 +8°C° 0 mm 1 mps 660 mmHg 20%
    14:00 +8°C° 0 mm 1 mps 660 mmHg 21%
    15:00 +8°C° 0 mm 1 mps 660 mmHg 24%
    16:00 +7°C° 0 mm 1 mps 660 mmHg 27%
    17:00 +7°C° 0 mm 1 mps 660 mmHg 30%
    18:00 +5°C° 0 mm 1 mps 661 mmHg 31%
    19:00 +3°C° 0 mm 2 mps 661 mmHg 32%
    20:00 +1°C° 0 mm 3 mps 662 mmHg 34%
    21:00 0°C° 0 mm 3 mps 662 mmHg 33%
    22:00 0°C° 0 mm 3 mps 662 mmHg 33%
    23:00 0°C° 0 mm 3 mps 662 mmHg 32%

    Day after tomorrow, 26 January, Saturday

    Time Temperature Precipitation Wind Pressure Humidity
    00:00 -1°C° 0 mm 3 mps 662 mmHg 32%
    01:00 -1°C° 0 mm 3 mps 662 mmHg 31%
    02:00 -1°C° 0 mm 3 mps 662 mmHg 30%
    03:00 -1°C° 0 mm 3 mps 662 mmHg 30%
    04:00 -2°C° 0 mm 3 mps 662 mmHg 30%
    05:00 -2°C° 0 mm 3 mps 662 mmHg 29%
    06:00 -2°C° 0 mm 3 mps 663 mmHg 29%
    07:00 -1°C° 0 mm 3 mps 663 mmHg 28%
    08:00 -1°C° 0 mm 3 mps 663 mmHg 28%
    09:00 +2°C° 0 mm 2 mps 663 mmHg 26%
    10:00 +4°C° 0 mm 2 mps 663 mmHg 24%
    11:00 +7°C° 0 mm 1 mps 663 mmHg 22%
    12:00 +7°C° 0 mm 1 mps 663 mmHg 23%
    13:00 +7°C° 0 mm 1 mps 663 mmHg 23%
    14:00 +8°C° 0 mm 1 mps 662 mmHg 24%
    15:00 +7°C° 0 mm 1 mps 662 mmHg 27%
    16:00 +7°C° 0 mm 1 mps 662 mmHg 29%
    17:00 +6°C° 0 mm 1 mps 662 mmHg 32%
    18:00 +5°C° 0 mm 1 mps 662 mmHg 33%
    19:00 +3°C° 0 mm 2 mps 663 mmHg 35%
    20:00 +1°C° 0 mm 3 mps 663 mmHg 36%
    21:00 0°C° 0 mm 3 mps 663 mmHg 35%
    22:00 0°C° 0 mm 3 mps 663 mmHg 34%
    23:00 0°C° 0 mm 3 mps 663 mmHg 32%

    27 January, Sunday

    Time Temperature Precipitation Wind Pressure Humidity
    00:00 -1°C° 0 mm 3 mps 663 mmHg 31%
    01:00 -1°C° 0 mm 3 mps 663 mmHg 30%
    02:00 -1°C° 0 mm 3 mps 663 mmHg 28%
    03:00 -1°C° 0 mm 3 mps 663 mmHg 28%
    04:00 -1°C° 0 mm 3 mps 662 mmHg 27%
    05:00 -2°C° 0 mm 3 mps 662 mmHg 26%
    06:00 -1°C° 0 mm 3 mps 663 mmHg 25%
    07:00 -1°C° 0 mm 3 mps 663 mmHg 24%
    08:00 -1°C° 0 mm 3 mps 663 mmHg 22%
    09:00 +2°C° 0 mm 2 mps 663 mmHg 20%
    10:00 +5°C° 0 mm 1 mps 663 mmHg 17%
    11:00 +7°C° 0 mm 1 mps 663 mmHg 14%
    12:00 +8°C° 0 mm 1 mps 663 mmHg 14%
    13:00 +8°C° 0 mm 1 mps 662 mmHg 15%
    14:00 +9°C° 0 mm 1 mps 662 mmHg 16%
    15:00 +8°C° 0 mm 1 mps 662 mmHg 18%
    16:00 +8°C° 0 mm 1 mps 661 mmHg 21%
    17:00 +6°C° 0 mm 0 mps 661 mmHg 24%
    18:00 +6°C° 0 mm 1 mps 662 mmHg 25%
    19:00 +4°C° 0 mm 2 mps 662 mmHg 26%
    20:00 +1°C° 0 mm 3 mps 662 mmHg 27%
    21:00 +1°C° 0 mm 3 mps 662 mmHg 27%
    22:00 +1°C° 0 mm 3 mps 662 mmHg 28%
    23:00 0°C° 0 mm 3 mps 662 mmHg 28%

    28 January, Monday

    Time Temperature Precipitation Wind Pressure Humidity
    00:00 0°C° 0 mm 3 mps 662 mmHg 28%
    01:00 0°C° 0 mm 3 mps 662 mmHg 28%
    02:00 0°C° 0 mm 3 mps 662 mmHg 28%
    03:00 0°C° 0 mm 3 mps 661 mmHg 28%
    04:00 0°C° 0 mm 3 mps 661 mmHg 28%
    05:00 -1°C° 0 mm 3 mps 661 mmHg 28%
    06:00 0°C° 0 mm 3 mps 661 mmHg 27%
    07:00 0°C° 0 mm 3 mps 662 mmHg 27%
    08:00 +1°C° 0 mm 3 mps 662 mmHg 26%
    09:00 +4°C° 0 mm 2 mps 662 mmHg 23%
    10:00 +7°C° 0 mm 1 mps 662 mmHg 20%
    11:00 +10°C° 0 mm 1 mps 662 mmHg 17%
    12:00 +10°C° 0 mm 1 mps 661 mmHg 18%
    13:00 +11°C° 0 mm 1 mps 661 mmHg 19%
    14:00 +10°C° 0 mm 2 mps 660 mmHg 19%
    15:00 +11°C° 0 mm 1 mps 660 mmHg 23%
    16:00 +10°C° 0 mm 1 mps 660 mmHg 26%
    17:00 +9°C° 0 mm 1 mps 660 mmHg 29%
    18:00 +8°C° 0 mm 1 mps 660 mmHg 30%
    19:00 +7°C° 0 mm 1 mps 661 mmHg 32%
    20:00 +5°C° 0 mm 1 mps 661 mmHg 33%
    21:00 +4°C° 0 mm 2 mps 661 mmHg 33%
    22:00 +4°C° 0 mm 2 mps 661 mmHg 33%
    23:00 +4°C° 0 mm 2 mps 660 mmHg 33%

    29 January, Tuesday

    Time Temperature Precipitation Wind Pressure Humidity
    00:00 +4°C° 0 mm 2 mps 660 mmHg 32%
    01:00 +3°C° 0 mm 2 mps 659 mmHg 32%
    02:00 +3°C° 0 mm 2 mps 658 mmHg 32%
    03:00 +3°C° 0 mm 2 mps 658 mmHg 32%
    04:00 +3°C° 0 mm 2 mps 657 mmHg 31%
    05:00 +3°C° 0 mm 2 mps 657 mmHg 31%
    06:00 +4°C° 0 mm 2 mps 657 mmHg 31%
    07:00 +4°C° 0 mm 2 mps 657 mmHg 31%
    08:00 +4°C° 0 mm 2 mps 657 mmHg 31%
    09:00 +8°C° 0 mm 1 mps 658 mmHg 27%
    10:00 +10°C° 0 mm 1 mps 658 mmHg 24%
    11:00 +12°C° 0 mm 1 mps 659 mmHg 20%
    12:00 +13°C° 0 mm 1 mps 659 mmHg 20%
    13:00 +13°C° 0 mm 1 mps 658 mmHg 21%
    14:00 +14°C° 0 mm 2 mps 658 mmHg 21%
    15:00 +13°C° 0 mm 1 mps 658 mmHg 24%
    16:00 +12°C° 0 mm 1 mps 658 mmHg 27%
    17:00 +12°C° 0 mm 1 mps 658 mmHg 30%
    18:00 +11°C° 0 mm 1 mps 658 mmHg 31%
    19:00 +10°C° 0 mm 1 mps 658 mmHg 33%
    20:00 +9°C° 0 mm 1 mps 659 mmHg 35%
    21:00 +9°C° 0 mm 1 mps 659 mmHg 36%
    22:00 +9°C° 0 mm 1 mps 659 mmHg 37%
    23:00 +9°C° 0 mm 1 mps 660 mmHg 37%
    Show more